This is the latest recevied weather packets stored in our database for station/object RW6A-13. If no packets are shown the sender has not sent any weather packets the latest 10 day(s).
| Time | Temp. | Humidity | Pressure | Rain* | Wind** | Luminosity | Snow |
|---|---|---|---|---|---|---|---|
| 1777543097 | 12.22° C | 65% | 1016.1 hPa | 0 mm | - | - | - |
| 1777542798 | 12.22° C | 64% | 1016 hPa | 0 mm | - | - | - |
| 1777542498 | 12.22° C | 61% | 1015.9 hPa | 0 mm | - | - | - |
| 1777542198 | 12.22° C | 64% | 1015.9 hPa | 0 mm | - | - | - |
| 1777541898 | 12.22° C | 63% | 1015.9 hPa | 0 mm | - | - | - |
| 1777541595 | 12.22° C | 63% | 1016 hPa | 0 mm | - | - | - |
| 1777541296 | 12.22° C | 61% | 1015.9 hPa | 0 mm | - | - | - |
| 1777540995 | 12.78° C | 61% | 1016 hPa | 0 mm | - | - | - |
| 1777540696 | 12.78° C | 60% | 1015.9 hPa | 0 mm | - | - | - |
| 1777540396 | 12.78° C | 61% | 1016 hPa | 0 mm | - | - | - |
| 1777540096 | 13.33° C | 59% | 1016 hPa | 0 mm | - | - | - |
| 1777539795 | 13.89° C | 58% | 1015.9 hPa | 0 mm | - | - | - |
| 1777539494 | 13.89° C | 59% | 1015.8 hPa | 0 mm | - | - | - |
| 1777539194 | 13.89° C | 58% | 1015.8 hPa | 0 mm | - | - | - |
| 1777538894 | 13.89° C | 57% | 1015.7 hPa | 0 mm | - | - | - |
| 1777538594 | 14.44° C | 56% | 1015.7 hPa | 0 mm | - | - | - |
| 1777538294 | 14.44° C | 57% | 1015.7 hPa | 0 mm | - | - | - |
| 1777537992 | 13.89° C | 56% | 1015.8 hPa | 0 mm | - | - | - |
| 1777537692 | 13.89° C | 57% | 1015.8 hPa | 0 mm | - | - | - |
| 1777537392 | 13.33° C | 57% | 1015.9 hPa | 0 mm | - | - | - |
| 1777537092 | 13.33° C | 59% | 1015.8 hPa | 0 mm | - | - | - |
| 1777536792 | 13.89° C | 57% | 1015.8 hPa | 0 mm | - | - | - |
| 1777536493 | 13.89° C | 59% | 1015.8 hPa | 0 mm | - | - | - |
| 1777536191 | 13.89° C | 60% | 1015.8 hPa | 0 mm | - | - | - |
| 1777535891 | 13.33° C | 64% | 1015.8 hPa | 0 mm | - | - | - |
* Rain latest hour (hover to see other rain measurements)
** Current wind speed in m/s (hover to see current wind gust speed)